FW9382 Weather Reports


time (UTC)temp
C
wind
direction
speed
KPH
gust
KPH
rain 1hr
cm
rain 24hr
cm
rain mn
cm
humidity
%
barometer
mb
20260508142403 18 311 6.4 12.9 0.00 0.00 0.00 70 1005.1
20260508141905 18 329 6.4 12.9 0.00 0.00 0.00 69 1005.1
20260508141403 18 20 6.4 12.9 0.00 0.00 0.00 69 1005.1
20260508140904 18 13 6.4 14.5 0.00 0.00 0.00 69 1004.9
20260508135903 18 322 9.7 17.7 0.00 0.00 0.00 69 1005.0
20260508135403 18 0 8.0 17.7 0.00 0.00 0.00 70 1005.1
20260508134904 18 333 6.4 14.5 0.00 0.00 0.00 69 1005.2
20260508134404 18 355 6.4 12.9 0.00 0.00 0.00 66 1005.3
20260508133404 18 178 11.3 25.7 0.00 0.00 0.00 59 1005.3
20260508132903 18 164 12.9 25.7 0.00 0.00 0.00 58 1005.3
20260508132403 18 176 11.3 27.4 0.00 0.00 0.00 58 1005.3
20260508131904 18 223 6.4 27.4 0.00 0.00 0.00 62 1005.4
20260508130903 18 303 3.2 14.5 0.00 0.00 0.00 67 1005.6
20260508125904 17 292 4.8 12.9 0.00 0.00 0.00 69 1005.7
20260508125403 17 178 6.4 16.1 0.00 0.00 0.00 64 1005.9
20260508124404 17 178 4.8 24.1 0.00 0.00 0.00 64 1005.9
20260508123903 17 248 3.2 17.7 0.00 0.00 0.00 67 1005.9
20260508123403 18 266 4.8 19.3 0.00 0.00 0.00 67 1005.9
20260508122903 18 242 3.2 19.3 0.00 0.00 0.00 65 1005.9
20260508122403 18 286 4.8 19.3 0.00 0.00 0.00 65 1006.0
20260508121904 19 279 6.4 19.3 0.00 0.00 0.00 63 1006.1
20260508121403 19 209 6.4 17.7 0.00 0.00 0.00 62 1006.1
20260508120904 18 184 6.4 14.5 0.00 0.00 0.00 65 1006.2
20260508120403 18 176 9.7 19.3 0.00 0.00 0.00 63 1006.2
20260508115903 18 163 11.3 19.3 0.00 0.00 0.00 62 1006.3
20260508115404 18 135 12.9 22.5 0.00 0.00 0.00 60 1006.3
20260508114903 18 134 12.9 22.5 0.00 0.00 0.00 61 1006.4
20260508114403 18 154 11.3 20.9 0.00 0.00 0.00 61 1006.5
20260508113903 18 143 12.9 22.5 0.00 0.00 0.00 59 1006.4
20260508113403 19 144 11.3 22.5 0.00 0.00 0.00 58 1006.5
20260508112904 19 159 9.7 19.3 0.00 0.00 0.00 57 1006.5
20260508112403 19 178 9.7 19.3 0.00 0.00 0.00 60 1006.5
20260508111903 18 211 9.7 16.1 0.00 0.00 0.00 59 1006.6
20260508110903 19 178 11.3 19.3 0.00 0.00 0.00 58 1006.7
20260508110416 19 175 12.9 24.1 0.00 0.00 0.00 58 1006.7
20260508105903 19 207 12.9 24.1 0.00 0.00 0.00 60 1006.7
20260508104905 18 194 9.7 24.1 0.00 0.00 0.00 63 1006.9
20260508104405 18 193 11.3 24.1 0.00 0.00 0.00 62 1006.9
20260508103904 18 211 9.7 20.9 0.00 0.00 0.00 63 1006.9
20260508103404 17 215 9.7 17.7 0.00 0.00 0.00 65 1006.9
20260508102903 17 185 8.0 17.7 0.00 0.00 0.00 66 1007.0
20260508102403 17 135 9.7 20.9 0.00 0.00 0.00 67 1007.0
20260508101405 17 146 9.7 19.3 0.00 0.00 0.00 68 1006.9
20260508100905 17 161 8.0 19.3 0.00 0.00 0.00 70 1006.9
20260508100405 16 163 9.7 24.1 0.00 0.00 0.00 70 1007.0
20260508095904 16 169 11.3 24.1 0.00 0.00 0.00 71 1007.0
20260508095404 16 165 9.7 24.1 0.00 0.00 0.00 69 1007.0
20260508094906 16 205 8.0 24.1 0.00 0.00 0.00 71 1007.1
20260508094405 17 185 9.7 17.7 0.00 0.00 0.00 72 1007.1
20260508093905 16 164 11.3 19.3 0.00 0.00 0.00 72 1007.1
20260508093405 16 163 12.9 24.1 0.00 0.00 0.00 71 1007.1
20260508092903 16 142 12.9 24.1 0.00 0.00 0.00 72 1007.1
20260508092403 16 135 9.7 19.3 0.00 0.00 0.00 73 1007.1
20260508091407 15 163 11.3 17.7 0.00 0.00 0.00 75 1007.1
20260508090903 15 177 9.7 17.7 0.00 0.00 0.00 75 1007.1
20260508090403 15 178 9.7 17.7 0.00 0.00 0.00 76 1007.1
20260508085904 15 198 11.3 20.9 0.00 0.00 0.00 78 1007.2
20260508085404 15 109 12.9 20.9 0.00 0.00 0.00 78 1007.3
20260508084904 15 173 11.3 19.3 0.00 0.00 0.00 80 1007.4
20260508084404 15 160 12.9 22.5 0.00 0.00 0.00 81 1007.4
20260508083904 15 134 12.9 22.5 0.00 0.00 0.00 82 1007.4
20260508083404 14 167 9.7 17.7 0.00 0.00 0.00 83 1007.4
20260508082403 13 177 11.3 17.7 0.00 0.00 0.00 84 1007.4
20260508081906 13 167 8.0 17.7 0.00 0.00 0.00 85 1007.4
20260508081406 13 133 6.4 12.9 0.00 0.00 0.00 86 1007.3
20260508080906 13 155 8.0 14.5 0.00 0.00 0.00 87 1007.3
20260508075905 13 137 6.4 14.5 0.00 0.00 0.00 87 1007.3
20260508074907 13 159 6.4 9.7 0.00 0.00 0.00 88 1007.3
20260508074407 12 146 6.4 11.3 0.00 0.00 0.00 88 1007.3
20260508073858 12 146 6.4 12.9 0.00 0.00 0.00 89 1007.3
20260508072847 12 140 4.8 11.3 0.00 0.00 0.00 89 1007.3
20260508072340 12 142 3.2 8.0 0.00 0.00 0.00 89 1007.2
20260508071834 12 139 1.6 6.4 0.00 0.00 0.00 89 1007.1
20260508070833 12 148 1.6 4.8 0.00 0.00 0.00 88 1007.0
20260508070333 12 148 0.0 8.0 0.00 0.00 0.00 88 1007.0
20260508065832 12 148 1.6 8.0 0.00 0.00 0.00 88 1007.0
20260508065332 12 148 1.6 8.0 0.00 0.00 0.00 88 1006.9
20260508064832 11 148 1.6 8.0 0.00 0.00 0.00 88 1006.9
20260508064333 11 153 1.6 4.8 0.00 0.00 0.00 87 1007.0
20260508063833 11 157 1.6 6.4 0.00 0.00 0.00 87 1006.9
20260508062832 11 163 0.0 1.6 0.00 0.00 0.00 87 1006.9
20260508062333 11 163 0.0 1.6 0.00 0.00 0.00 87 1006.8
20260508061832 11 163 0.0 1.6 0.00 0.00 0.00 87 1006.9
20260508061332 11 164 0.0 0.0 0.00 0.00 0.00 87 1006.7
20260508060831 11 164 0.0 1.6 0.00 0.00 0.00 87 1006.6
20260508060332 11 164 1.6 6.4 0.00 0.00 0.00 87 1006.7
20260508055831 11 164 1.6 9.7 0.00 0.00 0.00 87 1006.7
20260508055332 11 163 1.6 9.7 0.00 0.00 0.00 87 1006.6
20260508054828 11 172 0.0 4.8 0.00 0.00 0.00 87 1006.6
20260508054330 11 118 0.0 1.6 0.00 0.00 0.00 87 1006.5
20260508053329 11 118 0.0 1.6 0.00 0.00 0.00 87 1006.4
20260508052826 11 118 0.0 3.2 0.00 0.00 0.00 87 1006.3
20260508052324 11 118 0.0 4.8 0.00 0.00 0.00 87 1006.3
20260508051822 11 119 0.0 4.8 0.00 0.00 0.00 87 1006.3
20260508050819 11 236 0.0 1.6 0.00 0.00 0.00 86 1006.4
20260508050317 11 236 0.0 1.6 0.00 0.00 0.00 86 1006.4
20260508045816 11 236 0.0 1.6 0.00 0.00 0.00 86 1006.3
20260508043812 11 236 0.0 0.0 0.00 0.00 0.00 86 1006.2
20260508043313 11 236 0.0 0.0 0.00 0.00 0.00 86 1006.2
20260508042810 11 236 0.0 1.6 0.00 0.00 0.00 86 1006.1
20260508042311 11 236 0.0 1.6 0.00 0.00 0.00 86 1006.1
20260508041809 11 236 0.0 1.6 0.00 0.00 0.00 86 1006.2
20260508041308 11 236 0.0 1.6 0.00 0.00 0.00 86 1006.3
20260508040308 11 236 0.0 1.6 0.00 0.00 0.00 86 1006.3
20260508035808 11 236 0.0 1.6 0.00 0.00 0.00 85 1006.1
20260508035307 11 236 0.0 0.0 0.00 0.00 0.00 85 1006.1
20260508034807 11 236 0.0 0.0 0.00 0.00 0.00 85 1006.2
20260508033804 11 236 0.0 1.6 0.00 0.00 0.00 84 1006.3
20260508033307 11 236 0.0 1.6 0.00 0.00 0.00 84 1006.2
20260508032807 11 236 0.0 1.6 0.00 0.00 0.00 84 1006.3
20260508031806 12 236 0.0 0.0 0.00 0.00 0.00 84 1006.3
20260508031307 12 236 0.0 0.0 0.00 0.00 0.00 84 1006.3
20260508030806 12 236 0.0 0.0 0.00 0.00 0.00 84 1006.4
20260508030307 12 236 0.0 0.0 0.00 0.00 0.00 84 1006.3
20260508025806 12 236 0.0 0.0 0.00 0.00 0.00 83 1006.5
20260508025307 12 236 0.0 1.6 0.00 0.00 0.00 83 1006.4
20260508024806 12 236 0.0 3.2 0.00 0.00 0.00 83 1006.5
20260508024308 12 236 1.6 3.2 0.00 0.00 0.00 83 1006.6
20260508022806 12 236 0.0 1.6 0.00 0.00 0.00 82 1006.5
20260508022307 12 237 0.0 0.0 0.00 0.00 0.00 82 1006.5
20260508021806 12 237 0.0 0.0 0.00 0.00 0.00 82 1006.5
20260508020806 12 236 0.0 1.6 0.00 0.00 0.00 81 1006.6
20260508015806 12 236 0.0 3.2 0.00 0.00 0.00 80 1006.8
20260508015306 12 237 0.0 0.0 0.00 0.00 0.00 80 1006.7
20260508014807 12 237 0.0 1.6 0.00 0.00 0.00 80 1006.7
20260508014307 12 237 0.0 1.6 0.00 0.00 0.00 80 1006.9
20260508013806 12 237 0.0 0.0 0.00 0.00 0.00 80 1007.0
20260508013307 12 237 0.0 0.0 0.00 0.00 0.00 79 1007.0
20260508012307 12 237 0.0 0.0 0.00 0.00 0.00 79 1007.1
20260508011806 13 237 0.0 0.0 0.00 0.00 0.00 79 1007.1
20260508011307 13 237 0.0 1.6 0.00 0.00 0.00 79 1007.2
20260508010806 13 237 0.0 1.6 0.00 0.00 0.00 78 1007.3
20260508010307 13 237 0.0 1.6 0.00 0.00 0.00 78 1007.3
20260508005806 13 237 0.0 3.2 0.00 0.00 0.00 78 1007.4
20260508004805 13 237 0.0 0.0 0.00 0.00 0.00 78 1007.3
20260508003806 13 237 0.0 0.0 0.00 0.00 0.00 78 1007.3
20260508003307 13 237 0.0 0.0 0.00 0.00 0.00 78 1007.3
20260508002800 13 237 0.0 0.0 0.00 0.00 0.00 77 1007.5
20260508002253 13 237 0.0 0.0 0.00 0.00 0.00 77 1007.4
20260508001753 13 237 0.0 1.6 0.00 0.00 0.00 77 1007.6
20260508001251 13 237 0.0 4.8 0.00 0.00 0.00 77 1007.6
20260508000250 13 272 0.0 3.2 0.00 0.00 0.00 76 1007.8
20260507235746 13 293 0.0 1.6 0.00 0.00 0.00 76 1007.6
20260507235244 13 293 0.0 0.0 0.00 0.00 0.00 76 1007.5
20260507234744 13 293 0.0 0.0 0.00 0.00 0.00 75 1007.6
20260507234244 13 293 0.0 0.0 0.00 0.00 0.00 75 1007.5
20260507233741 13 293 0.0 1.6 0.00 0.00 0.00 75 1007.5
20260507233239 14 293 0.0 1.6 0.00 0.00 0.00 75 1007.5
20260507232737 14 293 0.0 1.6 0.00 0.00 0.00 75 1007.6
20260507232236 14 293 0.0 1.6 0.00 0.00 0.00 75 1007.6
20260507231733 14 293 0.0 3.2 0.00 0.00 0.00 75 1007.6
20260507231234 14 293 1.6 4.8 0.00 0.00 0.00 74 1007.4
20260507230734 14 293 1.6 4.8 0.00 0.00 0.00 74 1007.7
20260507230234 14 292 1.6 4.8 0.00 0.00 0.00 74 1007.7
20260507225734 14 297 1.6 4.8 0.00 0.00 0.00 74 1007.7
20260507225234 14 298 0.0 4.8 0.00 0.00 0.00 74 1007.8
20260507224734 14 294 1.6 6.4 0.00 0.00 0.00 74 1007.9
20260507224234 14 294 1.6 6.4 0.00 0.00 0.00 74 1008.1
20260507223735 14 270 1.6 6.4 0.00 0.00 0.00 74 1008.1
20260507222735 14 257 3.2 11.3 0.00 0.00 0.00 74 1008.1
20260507222234 14 294 3.2 12.9 0.00 0.00 0.00 74 1008.2
20260507221734 14 291 3.2 12.9 0.00 0.00 0.00 74 1008.2
20260507221235 14 288 3.2 11.3 0.00 0.00 0.00 74 1008.3
20260507220735 14 297 3.2 11.3 0.00 0.00 0.00 74 1008.4
20260507220234 14 306 1.6 6.4 0.00 0.00 0.00 74 1008.5
20260507215734 14 273 1.6 11.3 0.00 0.00 0.00 74 1008.7
20260507215234 14 273 3.2 11.3 0.00 0.00 0.00 74 1008.7
20260507214734 14 295 4.8 14.5 0.00 0.00 0.00 74 1008.7
20260507214236 14 286 6.4 14.5 0.00 0.00 0.00 74 1008.6
20260507213737 14 279 4.8 12.9 0.00 0.00 0.00 74 1008.6
20260507213236 14 297 4.8 14.5 0.00 0.00 0.00 74 1008.6
20260507212737 14 269 6.4 19.3 0.00 0.00 0.00 74 1008.6
20260507212237 14 310 6.4 19.3 0.00 0.00 0.00 74 1008.7
20260507211736 14 312 6.4 19.3 0.00 0.00 0.00 75 1008.7
20260507211237 14 306 6.4 19.3 0.00 0.00 0.00 75 1008.7
20260507210236 14 252 6.4 16.1 0.00 0.00 0.00 76 1008.8
20260507205737 14 252 8.0 16.1 0.00 0.00 0.00 76 1008.7
20260507205237 14 277 6.4 14.5 0.00 0.00 0.00 76 1008.6
20260507204736 14 277 4.8 14.5 0.00 0.00 0.00 77 1008.6
20260507203737 14 229 8.0 19.3 0.00 0.00 0.00 76 1008.4
20260507203237 14 230 8.0 17.7 0.00 0.00 0.00 76 1008.4
20260507202236 14 275 8.0 14.5 0.00 0.00 0.00 76 1008.2
20260507201735 14 296 8.0 16.1 0.00 0.00 0.00 76 1008.3
20260507201250 14 287 6.4 16.1 0.00 0.00 0.00 76 1008.2
20260507200737 15 277 6.4 17.7 0.00 0.00 0.00 76 1008.2
20260507195737 15 273 6.4 14.5 0.00 0.00 0.00 76 1008.2
20260507195235 15 276 4.8 14.5 0.00 0.00 0.00 76 1008.2
20260507194736 15 264 4.8 11.3 0.00 0.00 0.00 75 1008.2
20260507194236 15 298 4.8 11.3 0.00 0.00 0.00 75 1008.2
20260507193737 15 277 6.4 12.9 0.00 0.00 0.00 74 1008.1
20260507193235 15 284 8.0 14.5 0.00 0.00 0.00 75 1008.1
20260507192734 15 260 6.4 14.5 0.00 0.00 0.00 75 1008.1
20260507192234 15 288 6.4 12.9 0.00 0.00 0.00 75 1008.1
20260507191734 15 288 6.4 14.5 0.00 0.00 0.00 74 1008.1
20260507191234 15 311 6.4 14.5 0.00 0.00 0.00 74 1008.1
20260507190234 15 292 6.4 14.5 0.00 0.00 0.00 74 1008.0
20260507185734 15 273 6.4 12.9 0.00 0.00 0.00 74 1008.0
20260507185234 15 276 4.8 14.5 0.00 0.00 0.00 74 1007.9
20260507184234 15 271 6.4 12.9 0.00 0.00 0.00 75 1007.8
20260507182734 16 277 9.7 17.7 0.00 0.00 0.00 74 1007.7
20260507182234 16 294 8.0 16.1 0.00 0.00 0.00 74 1007.6
20260507181734 16 279 6.4 16.1 0.00 0.00 0.00 73 1007.6
20260507181234 16 292 6.4 12.9 0.00 0.00 0.00 73 1007.7
20260507180736 16 272 6.4 14.5 0.00 0.00 0.00 73 1007.6
20260507180236 16 271 8.0 14.5 0.00 0.00 0.00 73 1007.6
20260507175737 16 288 8.0 14.5 0.00 0.00 0.00 72 1007.5
20260507175235 16 278 6.4 14.5 0.00 0.00 0.00 72 1007.5
20260507174736 16 303 6.4 16.1 0.00 0.00 0.00 72 1007.5
20260507174236 16 301 9.7 17.7 0.00 0.00 0.00 71 1007.5
20260507173737 16 296 8.0 17.7 0.00 0.00 0.00 71 1007.5
20260507172737 16 286 8.0 17.7 0.00 0.00 0.00 71 1007.7
20260507172237 16 305 9.7 17.7 0.00 0.00 0.00 70 1007.7
20260507171236 16 281 9.7 19.3 0.00 0.00 0.00 70 1007.7
20260507170237 17 305 12.9 22.5 0.00 0.00 0.00 68 1007.8
20260507165730 17 290 12.9 22.5 0.00 0.00 0.00 68 1007.8
20260507165224 17 292 12.9 20.9 0.00 0.00 0.00 68 1007.8
20260507164221 17 275 11.3 17.7 0.00 0.00 0.00 68 1007.7
20260507163722 17 275 11.3 17.7 0.00 0.00 0.00 68 1007.7
20260507163222 17 290 12.9 20.9 0.00 0.00 0.00 67 1007.6
20260507162722 17 275 12.9 22.5 0.00 0.00 0.00 68 1007.6
20260507162223 18 281 14.5 22.5 0.00 0.00 0.00 67 1007.6
20260507161721 18 280 16.1 24.1 0.00 0.00 0.00 67 1007.5
20260507160721 18 294 14.5 22.5 0.00 0.00 0.00 67 1007.6
20260507160221 18 287 12.9 20.9 0.00 0.00 0.00 66 1007.5
20260507155222 18 277 14.5 25.7 0.00 0.00 0.00 66 1007.5
20260507154719 18 294 14.5 22.5 0.00 0.00 0.00 66 1007.5
20260507154220 18 295 12.9 22.5 0.00 0.00 0.00 66 1007.5
20260507153220 18 309 14.5 22.5 0.00 0.00 0.00 65 1007.6
20260507152215 18 309 16.1 22.5 0.00 0.00 0.00 66 1007.7
20260507151715 18 290 14.5 22.5 0.00 0.00 0.00 66 1007.8
20260507151215 18 301 14.5 22.5 0.00 0.00 0.00 66 1007.8
20260507150716 18 313 14.5 22.5 0.00 0.00 0.00 66 1007.9
20260507145713 18 268 12.9 20.9 0.00 0.00 0.00 66 1007.9
20260507144713 18 281 16.1 20.9 0.00 0.00 0.00 65 1008.0
20260507144213 18 299 14.5 20.9 0.00 0.00 0.00 65 1008.0
20260507143710 18 292 14.5 22.5 0.00 0.00 0.00 65 1008.0
20260507143209 18 300 14.5 22.5 0.00 0.00 0.00 65 1008.0
20260507142710 18 342 14.5 19.3 0.00 0.00 0.00 65 1008.1